Back to catalog

FFLY-3

AliveScienceSSO
NORAD 65319·PAYLOAD·🇺🇸 United States

Launched Aug 26, 2025 from Vandenberg Space Force Base

Loading…

Next Passes (next 24 hours)

TLE

FreshSource: Space-Track

Epoch: Sep 14, 2026, 13:05 UTC

1 65319U 25188E   26257.54547567  .00001014  00000-0  10328-3 0  9996
2 65319  97.7254 331.0790 0008418 158.2177 201.9402 14.92857039 57249

Track FFLY-3 in real time with AllMySat

Download on the App Store